| time (UTC) | temp F | wind direction | speed MPH | gust MPH | rain 1hr in | rain 24hr in | rain mn in | humidity % | barometer mb |
| 20260506144523 | 75 | 221 | 0.0 | 0.0 | 0.00 | 0.00 | 0.00 | 90 | 1009.9 |
| 20260506143023 | 75 | 221 | 0.0 | 0.0 | 0.00 | 0.00 | 0.00 | 90 | 1009.8 |
| 20260506141548 | 75 | 221 | 0.0 | 0.0 | 0.00 | 0.00 | 0.00 | 90 | 1009.3 |
| 20260506140022 | 75 | 220 | 0.0 | 2.0 | 0.00 | 0.00 | 0.00 | 90 | 1009.1 |
| 20260506134514 | 75 | 246 | 0.0 | 0.0 | 0.00 | 0.00 | 0.00 | 90 | 1008.7 |
| 20260506133022 | 75 | 8 | 0.0 | 3.0 | 0.00 | 0.00 | 0.00 | 90 | 1008.6 |
| 20260506131516 | 75 | 347 | 0.0 | 2.0 | 0.00 | 0.00 | 0.00 | 90 | 1008.4 |
| 20260506130011 | 74 | 219 | 0.0 | 3.0 | 0.00 | 0.00 | 0.00 | 91 | 1008.4 |
| 20260506124508 | 74 | 186 | 0.0 | 0.0 | 0.00 | 0.00 | 0.00 | 91 | 1008.4 |
| 20260506123006 | 74 | 202 | 0.0 | 0.0 | 0.00 | 0.00 | 0.00 | 91 | 1008.5 |
| 20260506121506 | 74 | 219 | 0.0 | 0.0 | 0.00 | 0.00 | 0.00 | 90 | 1008.5 |
| 20260506120006 | 74 | 219 | 0.0 | 1.0 | 0.00 | 0.00 | 0.00 | 90 | 1008.3 |
| 20260506114505 | 74 | 224 | 0.0 | 1.0 | 0.00 | 0.00 | 0.00 | 90 | 1008.2 |
| 20260506113006 | 74 | 224 | 0.0 | 1.0 | 0.00 | 0.00 | 0.00 | 90 | 1008.2 |
| 20260506111503 | 74 | 147 | 0.0 | 0.0 | 0.00 | 0.00 | 0.00 | 90 | 1008.2 |
| 20260506110003 | 75 | 124 | 0.0 | 0.0 | 0.00 | 0.00 | 0.00 | 90 | 1008.3 |
| 20260506104505 | 75 | 118 | 0.0 | 0.0 | 0.00 | 0.00 | 0.00 | 90 | 1008.1 |
| 20260506103002 | 75 | 98 | 0.0 | 1.0 | 0.00 | 0.00 | 0.00 | 90 | 1008.1 |
| 20260506101501 | 75 | 110 | 0.0 | 4.0 | 0.00 | 0.00 | 0.00 | 90 | 1008.1 |
| 20260506094600 | 75 | 68 | 0.0 | 1.0 | 0.00 | 0.00 | 0.00 | 90 | 1007.9 |
| 20260506093102 | 75 | 41 | 0.0 | 3.0 | 0.00 | 0.00 | 0.00 | 89 | 1007.8 |
| 20260506091601 | 75 | 162 | 0.0 | 4.0 | 0.00 | 0.00 | 0.00 | 89 | 1007.7 |
| 20260506090056 | 75 | 111 | 0.0 | 3.0 | 0.00 | 0.00 | 0.00 | 89 | 1007.9 |
| 20260506084556 | 75 | 158 | 0.0 | 4.0 | 0.00 | 0.00 | 0.00 | 89 | 1007.9 |
| 20260506083058 | 75 | 94 | 0.0 | 2.0 | 0.00 | 0.00 | 0.00 | 89 | 1007.9 |
| 20260506081558 | 75 | 134 | 0.0 | 1.0 | 0.00 | 0.00 | 0.00 | 89 | 1007.8 |
| 20260506073048 | 75 | 177 | 0.0 | 2.0 | 0.00 | 0.00 | 0.00 | 89 | 1008.2 |
| 20260506071545 | 75 | 216 | 0.0 | 5.0 | 0.00 | 0.00 | 0.00 | 89 | 1008.3 |
| 20260506061541 | 75 | 173 | 0.0 | 4.0 | 0.00 | 0.00 | 0.00 | 89 | 1008.6 |
| 20260506044530 | 76 | 218 | 0.0 | 6.0 | 0.00 | 0.00 | 0.00 | 88 | 1008.5 |
| 20260506043035 | 76 | 206 | 0.0 | 4.0 | 0.00 | 0.00 | 0.00 | 88 | 1008.5 |
| 20260506041529 | 76 | 185 | 0.0 | 0.0 | 0.00 | 0.00 | 0.00 | 88 | 1008.5 |
| 20260506040036 | 77 | 218 | 0.0 | 4.0 | 0.00 | 0.00 | 0.00 | 88 | 1008.2 |
| 20260506034530 | 77 | 225 | 0.0 | 5.0 | 0.00 | 0.00 | 0.00 | 88 | 1008.1 |
| 20260506033033 | 77 | 229 | 0.0 | 3.0 | 0.00 | 0.00 | 0.00 | 87 | 1007.8 |
| 20260506031528 | 77 | 176 | 0.0 | 3.0 | 0.00 | 0.00 | 0.00 | 87 | 1007.7 |
| 20260506030028 | 78 | 154 | 0.0 | 0.0 | 0.00 | 0.00 | 0.00 | 85 | 1007.4 |
| 20260506024529 | 78 | 154 | 0.0 | 5.0 | 0.00 | 0.00 | 0.00 | 84 | 1007.1 |
| 20260506023029 | 79 | 164 | 1.0 | 6.0 | 0.00 | 0.00 | 0.00 | 83 | 1006.8 |
| 20260506021532 | 80 | 153 | 0.0 | 6.0 | 0.00 | 0.00 | 0.00 | 81 | 1006.6 |
| 20260506020026 | 81 | 340 | 0.0 | 5.0 | 0.00 | 0.00 | 0.00 | 80 | 1006.7 |
| 20260506014524 | 81 | 314 | 0.0 | 3.0 | 0.00 | 0.00 | 0.00 | 78 | 1006.4 |
| 20260506013025 | 81 | 297 | 0.0 | 0.0 | 0.00 | 0.00 | 0.00 | 77 | 1006.2 |
| 20260506011522 | 82 | 295 | 0.0 | 0.0 | 0.00 | 0.00 | 0.00 | 76 | 1006.0 |
| 20260506010041 | 82 | 83 | 0.0 | 3.0 | 0.00 | 0.00 | 0.00 | 75 | 1005.9 |
| 20260506004525 | 83 | 232 | 0.0 | 0.0 | 0.00 | 0.00 | 0.00 | 75 | 1005.8 |
| 20260506003022 | 83 | 232 | 0.0 | 2.0 | 0.00 | 0.00 | 0.00 | 74 | 1005.7 |
| 20260506001521 | 84 | 248 | 0.0 | 1.0 | 0.00 | 0.00 | 0.00 | 73 | 1005.8 |
| 20260506000021 | 84 | 203 | 0.0 | 1.0 | 0.00 | 0.00 | 0.00 | 71 | 1005.6 |
| 20260505234533 | 85 | 166 | 0.0 | 2.0 | 0.00 | 0.00 | 0.00 | 71 | 1005.4 |
| 20260505233025 | 85 | 280 | 0.0 | 1.0 | 0.00 | 0.00 | 0.00 | 70 | 1005.4 |
| 20260505231519 | 86 | 219 | 0.0 | 1.0 | 0.00 | 0.00 | 0.00 | 68 | 1005.4 |
| 20260505230018 | 86 | 161 | 0.0 | 6.0 | 0.00 | 0.00 | 0.00 | 66 | 1005.2 |
| 20260505224515 | 86 | 174 | 0.0 | 3.0 | 0.00 | 0.00 | 0.00 | 67 | 1005.5 |
| 20260505223014 | 86 | 224 | 0.0 | 4.0 | 0.00 | 0.00 | 0.00 | 66 | 1005.5 |
| 20260505221512 | 87 | 96 | 0.0 | 5.0 | 0.00 | 0.00 | 0.00 | 64 | 1005.5 |
| 20260505220010 | 87 | 150 | 0.0 | 5.0 | 0.00 | 0.00 | 0.00 | 63 | 1005.7 |
| 20260505214509 | 86 | 143 | 0.0 | 4.0 | 0.00 | 0.00 | 0.00 | 65 | 1005.9 |
| 20260505213008 | 87 | 145 | 0.0 | 7.0 | 0.00 | 0.00 | 0.00 | 64 | 1006.0 |
| 20260505211503 | 87 | 37 | 0.0 | 1.0 | 0.00 | 0.00 | 0.00 | 66 | 1006.3 |
| 20260505210001 | 86 | 117 | 0.0 | 4.0 | 0.00 | 0.00 | 0.00 | 66 | 1006.6 |
| 20260505204605 | 86 | 158 | 0.0 | 5.0 | 0.00 | 0.00 | 0.00 | 66 | 1006.7 |
| 20260505203058 | 86 | 131 | 0.0 | 4.0 | 0.00 | 0.00 | 0.00 | 66 | 1007.1 |
| 20260505201556 | 87 | 136 | 0.0 | 6.0 | 0.00 | 0.00 | 0.00 | 66 | 1007.2 |
| 20260505200103 | 86 | 122 | 0.0 | 2.0 | 0.00 | 0.00 | 0.00 | 69 | 1007.3 |
| 20260505194554 | 85 | 79 | 0.0 | 4.0 | 0.00 | 0.00 | 0.00 | 69 | 1007.5 |
| 20260505193050 | 86 | 163 | 0.0 | 2.0 | 0.00 | 0.00 | 0.00 | 68 | 1007.7 |
| 20260505191543 | 84 | 146 | 0.0 | 7.0 | 0.00 | 0.00 | 0.00 | 72 | 1007.8 |
| 20260505190040 | 82 | 138 | 0.0 | 5.0 | 0.00 | 0.00 | 0.00 | 73 | 1008.2 |
| 20260505184537 | 82 | 116 | 0.0 | 3.0 | 0.00 | 0.00 | 0.00 | 74 | 1008.3 |
| 20260505183037 | 81 | 111 | 0.0 | 6.0 | 0.00 | 0.00 | 0.00 | 75 | 1008.6 |
| 20260505181534 | 80 | 41 | 0.0 | 4.0 | 0.00 | 0.00 | 0.00 | 77 | 1008.7 |
| 20260505180055 | 80 | 122 | 0.0 | 3.0 | 0.00 | 0.00 | 0.00 | 78 | 1008.6 |
| 20260505174548 | 79 | 47 | 0.0 | 3.0 | 0.00 | 0.00 | 0.00 | 77 | 1008.8 |
| 20260505173033 | 78 | 217 | 0.0 | 4.0 | 0.00 | 0.00 | 0.00 | 79 | 1008.9 |
| 20260505171525 | 78 | 89 | 0.0 | 5.0 | 0.00 | 0.00 | 0.00 | 82 | 1009.0 |
| 20260505170022 | 77 | 126 | 1.0 | 6.0 | 0.00 | 0.00 | 0.00 | 83 | 1008.9 |
| 20260505164518 | 76 | 1 | 0.0 | 8.0 | 0.00 | 0.00 | 0.00 | 84 | 1008.9 |
| 20260505163019 | 75 | 54 | 0.0 | 4.0 | 0.00 | 0.00 | 0.00 | 86 | 1009.0 |
| 20260505161511 | 74 | 104 | 0.0 | 4.0 | 0.00 | 0.00 | 0.00 | 87 | 1009.1 |
| 20260505153059 | 72 | 129 | 0.0 | 5.0 | 0.00 | 0.00 | 0.00 | 89 | 1009.1 |
| 20260505151602 | 72 | 89 | 0.0 | 2.0 | 0.00 | 0.00 | 0.00 | 90 | 1009.1 |